Time,TemperatureF,DewpointF,PressureIn,WindDirection,WindDirectionDegrees,WindSpeedMPH,WindSpeedGustMPH,Humidity,HourlyPrecipIn,Conditions,Clouds,dailyrainin,SoftwareType,DateUTC
2013-10-23 00:12:00,39.0,32.0,-100.00,ESE,110,1.0,3.0,74,-99.99,,,-99.99,,2013-10-23 06:12:00,
2013-10-23 00:52:00,40.0,33.0,-100.00,SE,125,1.0,2.0,77,-99.99,,,-99.99,,2013-10-23 06:52:00,
2013-10-23 01:12:00,40.0,33.0,-100.00,South,190,4.0,4.0,78,-99.99,,,-99.99,,2013-10-23 07:12:00,
2013-10-23 01:52:00,40.0,34.0,-100.00,East,95,2.0,3.0,79,-99.99,,,-99.99,,2013-10-23 07:52:00,
2013-10-23 02:12:00,40.0,34.0,-100.00,ESE,120,2.0,2.0,79,-99.99,,,-99.99,,2013-10-23 08:12:00,
2013-10-23 02:53:00,40.0,34.0,-100.00,SE,135,0.0,1.0,80,-99.99,,,-99.99,,2013-10-23 08:53:00,
2013-10-23 03:12:00,40.0,34.0,-100.00,SSE,155,0.0,0.0,80,-99.99,,,-99.99,,2013-10-23 09:12:00,
2013-10-23 03:53:00,40.0,35.0,-100.00,West,270,3.0,3.0,80,-99.99,,,-99.99,,2013-10-23 09:53:00,
2013-10-23 04:12:00,40.0,35.0,-100.00,WNW,285,3.0,4.0,81,-99.99,,,-99.99,,2013-10-23 10:12:00,
2013-10-23 04:53:00,41.0,35.0,-100.00,NW,320,7.0,9.0,79,-99.99,,,-99.99,,2013-10-23 10:53:00,
2013-10-23 05:12:00,41.0,35.0,-100.00,NW,315,7.0,10.0,79,-99.99,,,-99.99,,2013-10-23 11:12:00,
2013-10-23 05:52:00,41.0,35.0,-100.00,NNW,335,11.0,14.0,80,-99.99,,,-99.99,,2013-10-23 11:52:00,
2013-10-23 06:12:00,41.0,36.0,-100.00,NNW,330,12.0,16.0,80,-99.99,,,-99.99,,2013-10-23 12:12:00,
2013-10-23 06:52:00,41.0,36.0,-100.00,North,0,10.0,16.0,83,-99.99,,,-99.99,,2013-10-23 12:52:00,
2013-10-23 07:12:00,40.0,36.0,-100.00,North,0,10.0,18.0,83,-99.99,,,-99.99,,2013-10-23 13:12:00,
2013-10-23 07:52:00,39.0,34.0,-100.00,NNW,345,12.0,17.0,83,-99.99,,,-99.99,,2013-10-23 13:52:00,
2013-10-23 08:11:00,38.0,33.0,-100.00,NNW,335,12.0,17.0,80,-99.99,,,-99.99,,2013-10-23 14:11:00,
2013-10-23 08:52:00,37.0,31.0,-100.00,North,350,10.0,17.0,78,-99.99,,,-99.99,,2013-10-23 14:52:00,
2013-10-23 09:11:00,37.0,31.0,-100.00,NNW,335,13.0,17.0,78,-99.99,,,-99.99,,2013-10-23 15:11:00,
2013-10-23 09:53:00,37.0,30.0,-100.00,NNW,330,12.0,15.0,74,-99.99,,,-99.99,,2013-10-23 15:53:00,
2013-10-23 10:12:00,37.0,30.0,-100.00,NNW,340,11.0,16.0,74,-99.99,,,-99.99,,2013-10-23 16:12:00,
2013-10-23 10:53:00,38.0,28.0,-100.00,NNW,345,14.0,18.0,66,-99.99,,,-99.99,,2013-10-23 16:53:00,
2013-10-23 11:12:00,39.0,29.0,-100.00,North,350,13.0,19.0,67,-99.99,,,-99.99,,2013-10-23 17:12:00,
2013-10-23 11:52:00,38.0,28.0,-100.00,North,350,14.0,19.0,66,-99.99,,,-99.99,,2013-10-23 17:52:00,
2013-10-23 12:12:00,38.0,29.0,-100.00,North,350,11.0,16.0,68,-99.99,,,-99.99,,2013-10-23 18:12:00,
2013-10-23 12:52:00,38.0,28.0,-100.00,NNW,330,12.0,20.0,66,-99.99,,,-99.99,,2013-10-23 18:52:00,
2013-10-23 13:12:00,37.0,26.0,-100.00,NNW,340,17.0,21.0,65,-99.99,,,-99.99,,2013-10-23 19:12:00,
2013-10-23 13:53:00,37.0,26.0,-100.00,North,355,15.0,19.0,64,-99.99,,,-99.99,,2013-10-23 19:53:00,
2013-10-23 14:11:00,37.0,25.0,-100.00,NNW,330,17.0,20.0,62,-99.99,,,-99.99,,2013-10-23 20:11:00,
2013-10-23 14:52:00,37.0,23.0,-100.00,North,355,15.0,19.0,56,-99.99,,,-99.99,,2013-10-23 20:52:00,
2013-10-23 15:12:00,37.0,23.0,-100.00,North,0,17.0,20.0,55,-99.99,,,-99.99,,2013-10-23 21:12:00,
2013-10-23 15:54:00,38.0,22.0,-100.00,NNW,345,14.0,17.0,52,-99.99,,,-99.99,,2013-10-23 21:54:00,
2013-10-23 16:13:00,38.0,22.0,-100.00,NNW,345,12.0,18.0,52,-99.99,,,-99.99,,2013-10-23 22:13:00,
2013-10-23 16:54:00,37.0,23.0,-100.00,North,0,12.0,16.0,55,-99.99,,,-99.99,,2013-10-23 22:54:00,
2013-10-23 17:12:00,37.0,23.0,-100.00,North,5,12.0,16.0,55,-99.99,,,-99.99,,2013-10-23 23:12:00,
2013-10-23 17:52:00,36.0,23.0,-100.00,North,350,9.0,16.0,56,-99.99,,,-99.99,,2013-10-23 23:52:00,
2013-10-23 18:10:00,36.0,22.0,-100.00,North,355,9.0,12.0,55,-99.99,,,-99.99,,2013-10-24 00:10:00,
2013-10-23 18:12:00,36.0,22.0,-100.00,North,350,12.0,17.0,55,-99.99,,,-99.99,,2013-10-24 00:12:00,
2013-10-23 18:42:00,36.0,22.0,-100.00,North,355,9.0,12.0,55,-99.99,,,-99.99,,2013-10-24 00:42:00,
2013-10-23 18:52:00,36.0,22.0,-100.00,North,355,9.0,12.0,55,-99.99,,,-99.99,,2013-10-24 00:52:00,
2013-10-23 19:01:00,36.0,22.0,-100.00,North,355,9.0,12.0,55,-99.99,,,-99.99,,2013-10-24 01:01:00,